Wind_Speed
51 52 53 53 54 54 55 55 55 54 53 52 52 52 52 52 53 53 53 53 53 53 53 53 53 52 52 52 51 51 51 51 51 51 50 50 50 50
52 53 54 55 55 55 55 55 54 54 53 51 51 52 52 52 53 53 52 52 52 52 52 52 52 51 51 51 52 51 50 50 50 50 50 50 50 49
54 54 55 55 54 54 53 53 53 53 53 51 51 52 52 52 52 52 52 51 51 51 51 50 50 49 50 50 50 50 49 49 49 49 49 49 49 49
53 54 54 53 52 52 51 52 52 53 52 51 51 51 51 52 51 51 51 51 50 50 49 49 48 48 48 48 48 48 48 48 47 48 48 48 48 48
50 50 50 50 49 50 50 50 50 51 51 50 50 50 50 50 50 50 50 49 49 49 48 48 47 47 47 46 46 46 46 46 47 47 47 47 47 46
47 47 47 47 47 48 48 48 49 49 49 48 48 48 48 48 49 48 48 48 48 47 47 47 47 46 45 45 44 44 44 44 45 45 45 44 43 44
43 44 45 45 46 46 46 47 46 46 47 47 47 47 47 47 47 46 46 46 46 46 45 45 45 44 44 43 43 43 43 42 42 43 42 41 40 40
41 42 42 43 43 43 44 44 45 45 46 46 46 45 45 45 44 44 44 44 43 43 43 42 42 41 41 41 41 42 41 41 41 40 39 38 38 37
39 39 40 40 40 40 41 42 43 44 44 44 44 43 43 43 42 41 41 40 40 39 39 39 39 38 38 38 38 39 39 39 38 37 36 36 36 35
37 37 37 37 38 38 39 39 40 41 41 41 41 40 40 40 40 40 39 38 37 37 37 36 36 36 36 36 36 35 35 35 35 35 33 33 33 33
34 34 34 34 35 35 35 36 36 36 37 37 37 37 37 36 37 36 36 36 35 34 34 34 33 33 33 33 33 33 32 32 31 31 31 30 30 30
32 32 32 32 32 33 33 33 32 33 33 34 35 35 34 33 34 34 34 34 34 33 32 32 30 30 30 30 30 30 30 29 28 27 28 28 28 28
30 31 31 30 29 30 30 30 30 30 30 30 30 31 31 31 31 31 31 31 31 31 31 30 29 29 28 27 27 28 27 26 26 26 26 26 26 26
28 28 28 28 27 28 28 28 28 27 28 28 27 28 28 29 29 28 28 29 29 28 28 28 27 26 25 24 23 23 24 23 23 24 24 24 23 22
26 25 25 24 24 24 25 25 25 25 25 25 25 26 26 26 26 26 26 27 26 27 27 26 24 23 23 22 21 21 21 21 22 22 22 22 21 21
22 22 21 21 21 22 22 22 22 22 22 22 22 22 23 24 24 24 25 25 24 24 24 23 23 22 21 21 20 19 19 19 19 19 19 19 19 19
20 19 19 19 19 20 20 20 20 19 19 19 20 20 20 21 21 22 22 22 21 21 20 20 21 21 21 20 19 19 19 18 18 17 18 17 17 18
18 18 18 18 19 19 19 18 18 18 18 18 18 17 18 18 18 18 18 18 18 18 18 18 19 19 19 19 19 18 18 17 16 15 15 15 15 15
17 17 18 18 18 17 17 17 17 16 16 15 15 15 16 15 15 15 14 15 15 16 16 17 17 17 17 17 17 16 15 15 14 14 14 14 14 14
16 16 17 17 17 16 16 16 15 14 14 14 14 14 14 14 13 13 13 14 14 15 15 15 15 15 15 15 15 15 14 13 13 13 13 13 13 13
15 15 15 15 15 15 15 14 14 14 14 14 14 14 14 13 13 13 13 13 13 14 14 14 14 15 14 13 13 13 13 13 12 12 12 11 11 11
14 14 14 13 13 13 13 14 14 14 14 14 13 13 12 12 12 12 11 12 12 12 12 12 13 13 12 12 12 12 12 12 11 11 10 10 9 8
14 13 13 12 12 12 12 12 12 12 12 12 11 10 9 9 9 10 10 9 10 10 11 11 12 11 11 11 11 11 11 11 10 10 9 8 8 8
Wind_Direction
271 271 272 273 274 274 275 274 273 271 270 271 272 272 272 272 272 272 272 272 272 272 272 272 272 272 272 272 272 272 272 271 272 272 273 273 272 272
271 271 273 274 274 275 275 274 273 272 271 271 271 272 272 271 272 272 272 272 272 272 272 272 272 271 271 272 272 271 271 272 273 273 273 272 271 271
272 273 273 274 274 275 274 274 273 273 272 271 272 272 272 272 272 272 272 272 272 273 273 272 272 271 271 272 271 270 271 271 272 273 273 272 272 271
273 274 274 274 274 274 274 274 274 274 273 271 271 272 272 272 272 272 272 272 272 272 272 272 271 271 272 272 271 270 270 271 272 272 273 273 273 272
274 274 274 273 273 273 274 274 275 274 273 272 271 272 272 272 272 272 272 272 272 271 271 271 271 272 272 271 271 270 270 270 271 272 273 273 272 271
276 274 274 273 273 274 274 274 275 274 273 273 272 272 272 272 272 272 271 271 271 271 270 271 271 271 271 270 270 270 269 270 271 272 272 272 271 270
277 276 275 274 274 274 275 275 276 275 274 273 273 272 271 271 272 272 271 271 271 271 270 270 270 270 270 270 270 269 269 270 272 272 272 270 269 269
278 277 276 277 276 276 275 276 276 275 274 273 272 271 271 271 272 272 272 271 271 270 270 270 270 269 269 269 270 269 269 270 271 271 271 269 268 269
279 279 279 278 277 277 278 278 277 276 275 274 273 271 271 271 271 271 271 271 271 270 269 269 270 269 269 269 270 269 269 270 270 269 270 268 266 267
280 280 279 279 279 279 279 280 279 277 274 273 273 271 270 270 270 270 270 270 271 270 269 269 269 268 268 269 269 269 269 269 269 268 267 267 266 266
282 281 281 282 282 281 281 281 279 278 275 273 273 272 270 269 269 268 268 269 269 269 269 268 267 267 267 267 267 267 268 268 268 268 267 266 267 268
284 283 283 283 283 282 282 283 282 279 276 275 273 271 269 268 269 268 269 269 269 268 267 268 267 265 264 264 264 265 266 266 266 267 267 267 269 270
286 285 284 283 283 284 284 283 282 280 278 277 276 271 269 269 269 269 269 269 268 268 267 266 266 264 263 263 262 264 263 263 264 266 267 267 268 269
288 286 285 284 284 284 284 284 283 281 279 277 276 274 270 269 269 268 269 269 269 267 267 265 264 262 261 261 262 263 262 262 263 264 265 266 267 268
289 288 288 288 287 287 287 286 285 283 281 278 277 275 271 269 267 267 269 269 269 267 265 263 259 257 258 260 262 262 261 261 263 262 263 264 265 267
290 289 289 289 289 290 291 289 286 285 283 279 277 275 273 269 268 268 268 267 266 264 262 260 256 255 258 261 263 262 263 263 263 262 261 261 262 264
291 289 289 291 293 294 296 294 290 287 284 281 280 278 278 276 273 271 269 265 262 261 259 257 255 255 257 259 261 261 262 263 261 261 261 262 263 263
294 292 292 293 294 294 294 295 292 288 285 284 283 282 282 280 277 274 269 264 258 258 257 255 253 255 257 257 258 257 257 259 259 260 262 264 267 268
297 296 294 294 294 295 295 295 293 290 288 286 286 285 284 282 278 274 269 263 258 257 255 255 254 255 253 250 250 252 254 254 254 256 258 260 263 266
302 300 298 296 293 294 295 294 293 290 289 287 287 287 286 284 279 272 266 261 258 256 254 253 252 250 249 248 250 250 252 251 251 253 257 260 263 265
308 306 304 301 298 295 294 293 290 288 288 288 286 285 284 282 277 272 265 260 258 256 252 250 249 246 245 246 248 248 249 250 252 255 256 259 265 266
312 312 310 307 304 300 296 293 290 289 289 289 287 285 283 278 274 270 264 258 254 251 248 247 245 241 243 245 243 244 246 248 250 254 256 257 261 261
313 313 312 311 309 306 303 299 296 294 292 291 288 285 281 278 274 271 266 256 250 244 240 238 238 239 244 245 240 242 245 248 249 250 253 258 260 259
Height
5633 5632 5631 5630 5628 5626 5625 5624 5624 5624 5626 5624 5621 5619 5617 5617 5616 5615 5615 5615 5614 5613 5613 5612 5612 5611 5610 5609 5608 5607 5606 5606 5605 5604 5602 5601 5600 5599
5619 5618 5617 5615 5614 5612 5610 5608 5607 5607 5609 5610 5607 5605 5603 5602 5601 5601 5600 5600 5599 5598 5598 5597 5596 5596 5595 5594 5593 5592 5592 5591 5590 5589 5588 5587 5586 5585
5605 5603 5602 5600 5599 5597 5595 5593 5592 5591 5592 5594 5592 5590 5588 5588 5587 5586 5585 5585 5584 5583 5583 5582 5582 5581 5580 5580 5579 5578 5577 5577 5576 5575 5574 5573 5572 5571
5590 5588 5587 5585 5584 5582 5580 5579 5578 5576 5576 5578 5578 5575 5574 5573 5572 5571 5571 5570 5570 5569 5568 5568 5567 5567 5566 5565 5565 5564 5564 5563 5562 5561 5560 5559 5558 5557
5575 5574 5572 5570 5569 5568 5566 5565 5563 5562 5561 5561 5562 5561 5559 5558 5557 5557 5556 5556 5555 5555 5554 5554 5553 5553 5552 5552 5551 5551 5550 5550 5549 5548 5546 5545 5544 5544
5561 5560 5558 5557 5555 5554 5552 5551 5549 5548 5547 5547 5547 5546 5545 5544 5543 5543 5542 5541 5541 5541 5540 5540 5540 5539 5539 5539 5539 5538 5537 5537 5536 5535 5534 5533 5532 5531
5548 5546 5545 5543 5542 5540 5539 5538 5536 5534 5533 5533 5532 5532 5531 5530 5529 5528 5528 5528 5528 5527 5527 5527 5527 5527 5526 5526 5526 5526 5525 5524 5524 5523 5522 5521 5520 5520
5536 5533 5532 5530 5529 5527 5526 5524 5522 5521 5520 5519 5519 5518 5518 5517 5516 5515 5514 5514 5515 5515 5514 5514 5514 5514 5514 5514 5514 5513 5513 5513 5512 5511 5510 5510 5510 5510
5524 5522 5520 5518 5516 5515 5513 5511 5509 5507 5506 5505 5505 5504 5504 5504 5503 5502 5501 5501 5502 5502 5502 5503 5502 5503 5502 5502 5502 5502 5502 5502 5501 5501 5500 5500 5500 5500
5513 5511 5509 5507 5505 5503 5501 5499 5497 5495 5493 5492 5492 5492 5491 5491 5490 5490 5490 5490 5490 5490 5490 5491 5491 5492 5492 5492 5492 5492 5492 5492 5491 5491 5490 5490 5491 5491
5502 5500 5498 5496 5494 5492 5490 5488 5486 5483 5481 5481 5480 5480 5479 5479 5479 5479 5479 5479 5480 5480 5480 5481 5481 5482 5482 5482 5481 5482 5482 5482 5483 5482 5482 5482 5482 5483
5493 5491 5489 5487 5484 5482 5480 5478 5476 5474 5472 5471 5470 5469 5469 5469 5469 5469 5469 5469 5470 5471 5471 5471 5472 5472 5473 5473 5472 5473 5473 5474 5475 5475 5475 5475 5475 5475
5484 5482 5480 5477 5475 5473 5471 5469 5467 5465 5463 5462 5461 5460 5460 5460 5460 5460 5460 5460 5461 5462 5462 5463 5463 5463 5463 5464 5465 5465 5466 5467 5467 5468 5468 5468 5467 5467
5476 5473 5471 5469 5467 5465 5463 5461 5458 5457 5455 5454 5453 5452 5451 5452 5452 5452 5452 5452 5452 5453 5453 5454 5455 5455 5456 5457 5458 5458 5458 5459 5460 5461 5461 5461 5461 5461
5468 5466 5464 5462 5460 5458 5455 5453 5451 5449 5448 5447 5446 5445 5444 5444 5444 5444 5444 5444 5444 5444 5445 5446 5447 5448 5448 5449 5450 5451 5452 5452 5453 5454 5454 5454 5455 5455
5461 5459 5457 5455 5453 5451 5449 5447 5445 5443 5441 5440 5439 5438 5437 5436 5436 5437 5437 5437 5437 5437 5438 5439 5440 5441 5442 5443 5444 5445 5446 5447 5447 5448 5448 5449 5449 5450
5455 5453 5451 5449 5447 5445 5443 5441 5439 5437 5436 5434 5433 5432 5431 5430 5430 5430 5430 5430 5430 5431 5432 5432 5433 5435 5436 5437 5438 5439 5440 5441 5442 5442 5443 5444 5444 5445
5449 5448 5446 5444 5442 5440 5438 5436 5434 5432 5430 5429 5428 5427 5426 5425 5424 5424 5424 5424 5425 5426 5426 5427 5428 5430 5431 5432 5433 5434 5435 5436 5437 5437 5438 5439 5440 5440
5444 5442 5440 5438 5437 5435 5433 5431 5429 5427 5426 5424 5423 5422 5421 5420 5419 5419 5419 5419 5420 5421 5422 5422 5423 5424 5426 5427 5428 5429 5430 5431 5432 5433 5434 5435 5435 5435
5439 5437 5435 5433 5432 5430 5428 5426 5424 5423 5421 5420 5419 5418 5417 5416 5415 5415 5415 5415 5416 5416 5417 5418 5419 5420 5421 5423 5424 5425 5426 5427 5428 5430 5430 5431 5431 5431
5435 5433 5431 5429 5427 5425 5423 5422 5420 5419 5418 5416 5415 5414 5413 5412 5411 5411 5411 5411 5412 5412 5413 5414 5415 5416 5417 5419 5421 5422 5422 5423 5424 5425 5426 5427 5427 5428
5431 5429 5427 5424 5422 5421 5419 5417 5416 5415 5413 5412 5411 5410 5409 5408 5408 5407 5407 5407 5408 5409 5410 5411 5412 5413 5414 5416 5417 5418 5419 5420 5421 5422 5422 5423 5424 5424
5428 5425 5423 5421 5419 5417 5415 5413 5412 5411 5409 5408 5407 5406 5406 5405 5404 5404 5404 5404 5405 5405 5407 5408 5409 5410 5411 5412 5414 5415 5416 5417 5418 5419 5420 5420 5421 5421